SCP
0 0 0 0 0 0 0 0 0 0 0 0 0 0 0 0 0 0 0 0 0 0 0 0 0 0 0 0 0 0 0 0 0 0 0 0 0 0 0 0 0 0 0 0
0 0 0 0 0 0 0 0 0 0 0 0 0 0 0 0 0 0 0 0 0 0 0 0 0 0 0 0 0 0 0 0 0 0 0 0 0 0 0 0 0 0 0 0
0 0 0 0 0 0 0 0 0 0 0 0 0 0 0 0 0 0 0 0 0 0 0 0 0 0 0 0 0 0 0 0 0 0 0 0 0 0 0 0 0 0 0 0
0 0 0 0 0 0 0 0 0 0 0 0 0 0 0 0 0 0 0 0 0 0 0 0 0 0 0 0 0 0 0 0 0 0 0 0 0 0 0 0 0 0 0 0
0 0 0 0 0 0 0 0 0 0 0 0 0 0 0 0 0 0 0 0 0 0 0 0 0 0 0 0 0 0 0 0 0 0 0 0 0 0 0 0 0 0 0 0
0 0 0 0 0 0 0 0 0 0 0 0 0 0 0 0 0 0 0 0 0 0 0 0 0 0 0 0 0 0 0 0 0 0 0 0 0 0 0 0 0 0 -0 0
0 0 0 0 0 0 0 0 0 0 0 0 0 0 0 0 0 0 0 0 0 0 0 0 0 0 0 0 0 0 0 0 0 0 0 0 0 0 0 0 0 0 -0 -0
0 0 0 0 0 0 0 0 0 0 0 0 0 0 0 0 0 0 0 0 0 0 0 0 0 0 0 0 0 0 0 0 0 0 0 0 0 0 0 0 0 0 -0 -0
0 0 0 0 0 0 0 0 0 0 0 0 0 0 0 0 0 0 0 0 0 0 0 0 0 0 0 0 0 0 0 0 0 0 0 0 0 0 0 0 0 0 0 0
0 0 0 0 0 0 0 0 0 0 0 0 0 0 0 0 0 0 0 0 0 0 0 0 0 0 0 0 0 0 0 0 0 0 0 0 0 0 0 0 0 0 0 0
0 0 0 0 0 0 0 0 0 0 0 0 0 0 0 0 0 0 0 0 0 0 0 0 0 0 0 0 0 0 0 0 0 0 0 0 0 0 0 0 0 0 0 0
0 0 0 0 0 0 0 0 0 0 0 0 0 0 0 0 0 0 0 0 0 0 0 0 0 0 0 0 0 0 0 0 0 0 0 0 0 0 0 0 -0 0 0 0
0 0 0 0 0 0 0 0 0 0 0 0 0 0 0 0 0 0 0 0 0 0 0 0 0 0 0 0 0 0 0 0 0 0 0 0 0 0 0 0 -0 0 0 0
0 0 0 0 0 0 0 0 0 0 0 0 0 0 0 0 0 0 0 0 0 0 0 0 0 0 0 0 0 0 0 0 0 0 0 0 0 0 0 0 0 0 0 0
0 0 0 0 0 0 0 0 0 0 0 0 0 0 0 0 0 0 0 0 0 0 0 0 0 0 0 0 0 0 0 0 0 0 0 0 0 0 0 0 0 0 0 0
0 0 0 0 0 0 0 0 0 0 0 0 0 0 0 0 0 0 0 0 0 0 0 0 0 0 0 0 0 0 0 0 0 0 0 0 0 0 0 0 0 0 0 0
0 0 0 0 0 0 0 0 0 0 0 0 0 0 0 0 0 0 0 0 0 0 0 0 0 0 0 0 0 0 0 0 0 0 0 0 0 0 0 0 0 0 0 0
0 0 0 0 0 0 0 0 0 0 0 0 0 0 0 0 0 0 0 0 0 0 0 0 0 0 0 0 -0 0 0 0 0 0 0 0 0 0 0 0 0 0 0 0
0 0 0 0 0 0 0 0 0 0 0 0 0 0 0 0 0 0 0 0 0 0 0 0 0 -0 0 0 -0 -0 0 0 0 -0 0 0 0 0 0 0 0 0 0 0
0 0 0 0 0 0 0 0 0 0 0 0 0 0 0 0 0 0 0 0 0 0 0 0 0 -0 0 0 -0 -0 -0 0 0 -0 0 0 0 0 0 0 0 0 0 0
0 0 0 0 -0 0 0 0 0 0 0 0 0 0 0 0 0 0 0 0 0 0 0 0 -0 -0 0 0 -0 -0 0 0 -0 -0 -0 0 0 0 0 0 0 0 0 0
0 0 0 0 0 0 0 0 0 0 0 0 0 0 0 0 0 0 0 0 0 0 0 0 -0 -0 0 0 -0 -0 0 -0 -0 0 0 0 0 0 0 0 0 0 0 0
0 0 0 0 0 0 0 0 0 0 0 0 0 0 0 0 0 0 0 0 0 0 0 0 0 0 0 0 -0 -0 0 -0 -0 0 0 0 0 0 0 0 0 0 0 0
0 0 0 0 0 0 0 0 0 0 0 0 0 0 0 0 0 0 0 0 0 0 0 0 0 0 0 0 -0 -0 0 0 0 0 0 0 0 0 0 0 0 0 0 0
0 -0 0 0 0 0 0 0 0 0 0 0 0 0 0 0 0 0 0 0 0 0 0 0 0 0 0 0 -0 0 0 0 0 0 0 0 0 0 0 0 0 0 0 0
0 0 0 0 0 0 0 0 0 0 0 0 0 0 0 0 0 0 0 0 0 0 0 0 0 0 0 0 -0 0 0 0 0 0 0 0 0 0 0 0 0 0 0 0
0 0 0 0 0 0 0 0 0 0 0 0 0 0 0 0 0 0 0 0 0 0 0 0 0 0 0 0 -0 0 0 0 0 0 0 0 0 0 0 0 0 0 0 0
Wind_Speed_500mb
6 8 8 14 17 15 16 19 13 26 25 34 24 16 15 11 11 17 22 23 27 32 39 46 49 52 55 59 56 56 59 54 46 50 52 52 57 53 52 52 43 35 35 32
6 1 6 14 21 20 20 13 20 25 28 9 4 9 11 13 17 22 24 25 29 32 41 47 49 53 58 61 60 58 59 50 47 53 51 55 51 51 52 48 43 34 29 28
7 3 12 15 12 8 6 9 8 10 8 6 10 17 16 19 21 25 22 26 29 34 40 48 51 56 56 60 61 57 55 52 53 52 54 55 51 46 52 47 42 35 27 24
5 5 7 5 3 9 15 18 17 19 16 15 14 12 17 21 22 19 22 26 29 35 44 52 50 52 51 56 57 59 58 57 56 48 57 54 45 50 47 47 46 35 23 22
5 5 11 7 7 7 6 12 16 19 12 13 10 10 24 15 21 22 24 27 34 43 49 53 50 51 52 59 56 56 59 60 53 53 58 53 49 45 43 44 49 46 24 22
6 7 8 3 5 7 8 7 7 19 16 19 12 8 8 11 10 17 22 28 36 44 50 48 50 51 51 54 56 56 60 58 49 51 55 53 50 50 44 34 34 40 22 19
11 11 11 17 14 14 6 7 7 20 19 22 15 17 10 13 14 19 23 28 37 43 49 46 51 49 50 54 52 57 59 57 47 51 56 54 53 48 42 26 33 35 18 10
6 9 17 21 15 14 9 8 12 19 24 29 29 22 16 16 18 21 24 30 36 43 48 44 46 49 51 51 49 59 56 54 45 52 55 55 51 45 41 32 29 28 7 4
18 11 2 33 16 30 16 18 17 19 22 27 26 24 17 18 19 21 26 31 36 42 49 41 42 46 48 46 50 59 54 52 48 54 57 53 50 44 43 40 42 31 15 9
7 15 33 31 31 35 34 39 31 29 29 27 27 19 17 19 19 21 25 30 35 42 46 42 42 46 43 44 46 53 52 51 49 57 58 55 49 42 43 44 44 31 14 15
9 21 16 21 28 17 22 29 35 39 38 31 26 22 17 18 18 20 24 28 33 41 44 41 43 44 42 41 46 49 49 48 51 55 59 53 47 39 39 40 40 23 18 21
15 23 16 20 18 23 33 37 43 47 45 35 29 23 17 16 16 18 22 28 33 39 41 41 39 41 40 39 43 46 48 48 49 54 57 49 46 41 34 40 38 31 29 29
22 26 21 34 51 48 40 43 45 42 40 36 30 25 19 16 15 17 21 27 33 38 41 36 39 40 40 39 39 42 44 45 45 49 53 46 42 40 45 39 39 42 37 38
61 40 50 45 45 45 45 48 52 39 33 33 30 24 21 16 14 15 20 27 31 37 35 34 37 39 36 38 36 38 37 37 40 45 48 39 35 33 37 42 48 49 45 48
63 67 67 63 56 63 65 63 54 39 39 44 38 28 21 16 14 15 19 26 29 34 30 32 36 38 35 37 40 36 37 36 36 40 41 31 29 28 29 35 41 45 49 50
54 53 48 54 64 54 46 50 54 45 41 48 41 32 23 18 15 14 18 23 28 29 26 32 33 34 37 38 42 36 32 29 33 39 35 26 26 25 25 29 34 36 44 42
61 62 59 56 57 68 49 49 53 38 39 53 43 33 26 19 14 13 16 21 26 23 22 26 29 31 32 37 36 34 31 29 33 34 27 24 22 24 24 25 27 34 32 30
37 45 51 59 65 55 54 44 51 65 66 56 44 37 28 20 13 12 14 20 22 14 17 19 23 31 30 31 30 32 26 27 34 30 34 32 24 20 21 22 23 27 27 27
44 41 45 46 47 55 58 55 49 54 58 51 47 37 24 18 13 12 14 19 16 8 13 15 17 28 25 25 28 27 22 23 29 30 37 39 31 22 21 23 24 25 24 26
51 51 41 35 34 39 44 46 44 45 43 53 44 35 26 18 13 11 14 16 8 7 12 8 17 24 20 19 24 24 18 17 26 18 25 38 39 32 23 25 26 26 28 29
50 60 45 34 32 30 37 42 38 36 54 55 43 30 22 18 11 10 13 8 4 9 8 7 17 22 17 15 21 19 15 13 20 20 21 31 36 33 32 28 28 29 30 31
52 64 49 32 26 29 36 36 30 47 63 52 38 30 24 17 10 9 7 4 3 6 4 9 16 21 17 15 16 16 13 12 11 15 18 22 32 34 33 28 34 38 42 43
60 68 51 38 23 25 33 32 42 65 62 47 35 28 21 15 8 6 4 2 3 3 4 7 12 22 15 12 12 12 13 9 4 11 17 19 25 28 30 30 30 30 27 29
64 56 36 35 16 16 22 41 66 59 47 38 30 23 16 10 7 8 6 7 5 2 1 6 10 17 16 12 12 11 9 7 1 8 12 21 20 26 29 27 31 30 30 33
49 39 26 22 19 23 35 65 65 53 47 40 30 21 12 6 5 13 10 9 8 6 4 6 12 14 13 13 12 7 8 8 8 12 13 18 25 21 26 29 30 30 29 33
38 18 16 22 27 33 69 62 54 52 45 37 26 15 6 4 13 14 13 12 13 5 3 8 12 12 15 12 8 6 7 11 9 10 17 19 23 30 25 22 28 31 29 25
22 17 24 33 40 64 68 63 40 45 36 26 16 9 5 9 16 15 12 16 10 3 3 8 10 12 11 9 9 5 3 13 11 14 19 20 21 27 37 32 22 27 27 25
Wind_Direction_500mb
261 245 234 266 268 251 236 256 251 292 285 290 306 245 233 255 269 293 296 300 309 313 316 320 322 325 328 330 329 326 327 326 322 324 325 328 328 327 320 324 316 309 293 280
265 320 241 275 279 261 253 257 256 277 282 311 274 211 232 261 276 287 293 300 309 313 319 323 325 328 337 339 337 331 327 330 321 326 333 334 330 328 334 331 326 303 286 281
277 329 310 270 236 213 240 215 247 271 324 236 226 235 252 273 282 278 285 302 310 318 320 323 327 332 335 336 334 335 335 331 333 334 333 335 335 339 340 338 328 313 285 279
293 307 246 61 205 280 259 278 233 262 258 240 249 254 270 276 278 276 287 303 313 317 320 327 330 332 329 330 333 340 341 339 337 333 335 337 340 340 338 341 341 321 282 267
259 245 314 232 193 184 185 287 229 243 248 223 231 292 288 289 279 275 293 306 314 321 326 329 330 327 322 331 335 337 341 336 338 340 340 341 339 337 331 324 332 337 287 262
167 232 260 243 168 162 157 279 226 217 232 206 183 267 328 325 292 283 296 306 318 326 329 328 330 327 327 330 334 340 339 340 344 346 347 347 352 345 336 335 338 329 311 253
209 239 270 247 162 150 225 257 219 217 223 193 208 240 277 309 301 301 300 309 321 329 331 329 330 332 330 333 340 342 343 346 350 352 352 354 356 350 351 340 335 339 320 235
173 223 262 171 136 197 217 245 251 230 237 230 240 252 277 286 299 299 303 312 322 330 335 333 332 332 334 339 342 345 349 350 354 354 356 1 355 353 357 359 345 355 340 259
195 216 216 192 218 220 268 278 269 257 268 250 246 250 261 283 292 295 301 313 323 331 335 338 332 335 336 342 345 347 351 356 355 359 4 3 359 4 6 4 12 23 43 89
160 234 244 240 235 255 270 271 270 268 272 253 247 247 258 277 285 296 304 315 325 331 337 337 332 336 339 342 349 350 353 357 359 3 8 5 11 14 11 4 8 13 47 95
238 269 268 259 238 254 293 291 270 269 266 257 244 243 255 271 281 297 307 318 327 332 336 335 333 336 346 349 352 353 358 0 2 6 10 11 21 21 11 5 359 28 73 106
248 248 226 237 244 294 296 297 294 277 264 250 234 238 254 257 280 302 311 322 328 331 334 332 337 340 347 353 358 357 359 1 3 8 10 18 24 32 27 21 50 63 83 96
270 301 286 274 292 297 287 294 292 276 262 247 232 234 243 249 282 307 316 328 327 330 332 341 342 340 347 357 2 1 359 359 4 11 11 20 29 29 33 53 66 71 85 97
276 281 285 282 281 287 288 293 280 267 248 229 223 229 229 243 282 305 321 328 329 335 342 344 345 344 352 359 2 1 2 2 6 12 12 22 32 36 46 69 83 84 88 104
268 274 277 288 285 283 281 274 263 240 230 220 219 225 227 242 278 304 322 331 337 343 347 349 349 350 353 360 2 359 2 1 9 12 14 27 39 49 62 74 90 95 107 118
276 275 273 281 288 289 281 271 242 228 229 222 219 220 224 242 272 297 320 334 340 344 349 352 351 351 353 356 358 3 9 6 13 9 14 33 46 58 72 79 99 94 113 123
288 281 275 268 266 274 279 262 246 238 252 224 217 214 221 239 257 282 313 335 339 347 351 346 350 350 356 356 0 4 10 13 18 15 23 48 57 62 83 88 100 111 111 117
307 282 273 267 264 261 260 276 257 250 252 225 209 209 218 230 245 266 307 331 338 333 335 346 344 352 358 0 8 5 12 19 28 42 58 62 63 67 89 104 106 115 120 120
336 314 288 271 263 261 256 253 270 252 240 209 204 205 213 217 229 262 308 329 333 309 326 332 354 1 7 6 11 10 15 27 47 84 62 58 60 75 91 111 119 122 124 127
336 339 312 275 258 254 245 240 256 240 220 199 193 198 202 207 222 267 310 324 306 297 324 343 1 8 13 10 17 16 14 31 49 87 70 60 57 65 93 109 119 123 123 126
326 334 328 290 261 250 238 238 238 215 193 191 192 192 191 193 218 276 310 316 307 322 321 2 10 14 15 7 14 20 13 26 46 76 98 69 64 68 75 98 109 120 123 123
323 333 335 317 281 264 230 232 210 186 180 177 178 183 182 189 220 283 284 237 299 323 348 23 15 11 6 0 13 16 14 19 54 74 113 89 77 74 73 98 104 105 107 107
318 328 329 329 300 268 235 206 186 175 174 175 176 174 177 193 238 260 207 182 174 156 14 344 348 358 351 341 356 355 354 1 100 80 113 122 98 92 86 87 101 110 118 117
302 312 294 296 279 254 213 186 168 167 163 159 158 164 179 202 247 201 154 145 165 231 271 338 354 349 342 338 326 326 307 318 172 144 124 144 133 104 102 102 99 104 111 117
313 302 266 228 208 178 180 173 157 156 159 157 158 166 183 229 212 175 155 157 167 113 30 352 356 347 343 340 338 317 264 249 216 180 159 152 161 142 113 125 121 116 117 114
316 293 241 195 177 179 161 166 162 163 163 160 162 171 193 198 156 151 155 169 155 150 60 20 351 336 335 339 343 336 213 221 221 194 181 166 168 174 150 127 131 138 134 134
311 271 205 187 176 165 171 165 164 165 163 162 162 170 190 159 155 160 162 165 164 132 84 20 359 2 343 346 340 324 222 209 228 204 192 179 174 175 174 165 152 143 144 144
Wind_Speed_850mb
6 8 8 14 17 15 16 19 13 26 25 34 24 16 15 11 11 17 22 23 27 32 39 46 49 52 55 59 56 56 59 54 46 50 52 52 57 53 52 52 43 35 35 32
6 1 6 14 21 20 20 13 20 25 28 9 4 9 11 13 17 22 24 25 29 32 41 47 49 53 58 61 60 58 59 50 47 53 51 55 51 51 52 48 43 34 29 28
7 3 12 15 12 8 6 9 8 10 8 6 10 17 16 19 21 25 22 26 29 34 40 48 51 56 56 60 61 57 55 52 53 52 54 55 51 46 52 47 42 35 27 24
5 5 7 5 3 9 15 18 17 19 16 15 14 12 17 21 22 19 22 26 29 35 44 52 50 52 51 56 57 59 58 57 56 48 57 54 45 50 47 47 46 35 23 22
5 5 11 7 7 7 6 12 16 19 12 13 10 10 24 15 21 22 24 27 34 43 49 53 50 51 52 59 56 56 59 60 53 53 58 53 49 45 43 44 49 46 24 22
6 7 8 3 5 7 8 7 7 19 16 19 12 8 8 11 10 17 22 28 36 44 50 48 50 51 51 54 56 56 60 58 49 51 55 53 50 50 44 34 34 40 22 19
11 11 11 17 14 14 6 7 7 20 19 22 15 17 10 13 14 19 23 28 37 43 49 46 51 49 50 54 52 57 59 57 47 51 56 54 53 48 42 26 33 35 18 10
6 9 17 21 15 14 9 8 12 19 24 29 29 22 16 16 18 21 24 30 36 43 48 44 46 49 51 51 49 59 56 54 45 52 55 55 51 45 41 32 29 28 7 4
18 11 2 33 16 30 16 18 17 19 22 27 26 24 17 18 19 21 26 31 36 42 49 41 42 46 48 46 50 59 54 52 48 54 57 53 50 44 43 40 42 31 15 9
7 15 33 31 31 35 34 39 31 29 29 27 27 19 17 19 19 21 25 30 35 42 46 42 42 46 43 44 46 53 52 51 49 57 58 55 49 42 43 44 44 31 14 15
9 21 16 21 28 17 22 29 35 39 38 31 26 22 17 18 18 20 24 28 33 41 44 41 43 44 42 41 46 49 49 48 51 55 59 53 47 39 39 40 40 23 18 21
15 23 16 20 18 23 33 37 43 47 45 35 29 23 17 16 16 18 22 28 33 39 41 41 39 41 40 39 43 46 48 48 49 54 57 49 46 41 34 40 38 31 29 29
22 26 21 34 51 48 40 43 45 42 40 36 30 25 19 16 15 17 21 27 33 38 41 36 39 40 40 39 39 42 44 45 45 49 53 46 42 40 45 39 39 42 37 38
61 40 50 45 45 45 45 48 52 39 33 33 30 24 21 16 14 15 20 27 31 37 35 34 37 39 36 38 36 38 37 37 40 45 48 39 35 33 37 42 48 49 45 48
63 67 67 63 56 63 65 63 54 39 39 44 38 28 21 16 14 15 19 26 29 34 30 32 36 38 35 37 40 36 37 36 36 40 41 31 29 28 29 35 41 45 49 50
54 53 48 54 64 54 46 50 54 45 41 48 41 32 23 18 15 14 18 23 28 29 26 32 33 34 37 38 42 36 32 29 33 39 35 26 26 25 25 29 34 36 44 42
61 62 59 56 57 68 49 49 53 38 39 53 43 33 26 19 14 13 16 21 26 23 22 26 29 31 32 37 36 34 31 29 33 34 27 24 22 24 24 25 27 34 32 30
37 45 51 59 65 55 54 44 51 65 66 56 44 37 28 20 13 12 14 20 22 14 17 19 23 31 30 31 30 32 26 27 34 30 34 32 24 20 21 22 23 27 27 27
44 41 45 46 47 55 58 55 49 54 58 51 47 37 24 18 13 12 14 19 16 8 13 15 17 28 25 25 28 27 22 23 29 30 37 39 31 22 21 23 24 25 24 26
51 51 41 35 34 39 44 46 44 45 43 53 44 35 26 18 13 11 14 16 8 7 12 8 17 24 20 19 24 24 18 17 26 18 25 38 39 32 23 25 26 26 28 29
50 60 45 34 32 30 37 42 38 36 54 55 43 30 22 18 11 10 13 8 4 9 8 7 17 22 17 15 21 19 15 13 20 20 21 31 36 33 32 28 28 29 30 31
52 64 49 32 26 29 36 36 30 47 63 52 38 30 24 17 10 9 7 4 3 6 4 9 16 21 17 15 16 16 13 12 11 15 18 22 32 34 33 28 34 38 42 43
60 68 51 38 23 25 33 32 42 65 62 47 35 28 21 15 8 6 4 2 3 3 4 7 12 22 15 12 12 12 13 9 4 11 17 19 25 28 30 30 30 30 27 29
64 56 36 35 16 16 22 41 66 59 47 38 30 23 16 10 7 8 6 7 5 2 1 6 10 17 16 12 12 11 9 7 1 8 12 21 20 26 29 27 31 30 30 33
49 39 26 22 19 23 35 65 65 53 47 40 30 21 12 6 5 13 10 9 8 6 4 6 12 14 13 13 12 7 8 8 8 12 13 18 25 21 26 29 30 30 29 33
38 18 16 22 27 33 69 62 54 52 45 37 26 15 6 4 13 14 13 12 13 5 3 8 12 12 15 12 8 6 7 11 9 10 17 19 23 30 25 22 28 31 29 25
22 17 24 33 40 64 68 63 40 45 36 26 16 9 5 9 16 15 12 16 10 3 3 8 10 12 11 9 9 5 3 13 11 14 19 20 21 27 37 32 22 27 27 25
Wind_Direction_850mb
261 245 234 266 268 251 236 256 251 292 285 290 306 245 233 255 269 293 296 300 309 313 316 320 322 325 328 330 329 326 327 326 322 324 325 328 328 327 320 324 316 309 293 280
265 320 241 275 279 261 253 257 256 277 282 311 274 211 232 261 276 287 293 300 309 313 319 323 325 328 337 339 337 331 327 330 321 326 333 334 330 328 334 331 326 303 286 281
277 329 310 270 236 213 240 215 247 271 324 236 226 235 252 273 282 278 285 302 310 318 320 323 327 332 335 336 334 335 335 331 333 334 333 335 335 339 340 338 328 313 285 279
293 307 246 61 205 280 259 278 233 262 258 240 249 254 270 276 278 276 287 303 313 317 320 327 330 332 329 330 333 340 341 339 337 333 335 337 340 340 338 341 341 321 282 267
259 245 314 232 193 184 185 287 229 243 248 223 231 292 288 289 279 275 293 306 314 321 326 329 330 327 322 331 335 337 341 336 338 340 340 341 339 337 331 324 332 337 287 262
167 232 260 243 168 162 157 279 226 217 232 206 183 267 328 325 292 283 296 306 318 326 329 328 330 327 327 330 334 340 339 340 344 346 347 347 352 345 336 335 338 329 311 253
209 239 270 247 162 150 225 257 219 217 223 193 208 240 277 309 301 301 300 309 321 329 331 329 330 332 330 333 340 342 343 346 350 352 352 354 356 350 351 340 335 339 320 235
173 223 262 171 136 197 217 245 251 230 237 230 240 252 277 286 299 299 303 312 322 330 335 333 332 332 334 339 342 345 349 350 354 354 356 1 355 353 357 359 345 355 340 259
195 216 216 192 218 220 268 278 269 257 268 250 246 250 261 283 292 295 301 313 323 331 335 338 332 335 336 342 345 347 351 356 355 359 4 3 359 4 6 4 12 23 43 89
160 234 244 240 235 255 270 271 270 268 272 253 247 247 258 277 285 296 304 315 325 331 337 337 332 336 339 342 349 350 353 357 359 3 8 5 11 14 11 4 8 13 47 95
238 269 268 259 238 254 293 291 270 269 266 257 244 243 255 271 281 297 307 318 327 332 336 335 333 336 346 349 352 353 358 0 2 6 10 11 21 21 11 5 359 28 73 106
248 248 226 237 244 294 296 297 294 277 264 250 234 238 254 257 280 302 311 322 328 331 334 332 337 340 347 353 358 357 359 1 3 8 10 18 24 32 27 21 50 63 83 96
270 301 286 274 292 297 287 294 292 276 262 247 232 234 243 249 282 307 316 328 327 330 332 341 342 340 347 357 2 1 359 359 4 11 11 20 29 29 33 53 66 71 85 97
276 281 285 282 281 287 288 293 280 267 248 229 223 229 229 243 282 305 321 328 329 335 342 344 345 344 352 359 2 1 2 2 6 12 12 22 32 36 46 69 83 84 88 104
268 274 277 288 285 283 281 274 263 240 230 220 219 225 227 242 278 304 322 331 337 343 347 349 349 350 353 360 2 359 2 1 9 12 14 27 39 49 62 74 90 95 107 118
276 275 273 281 288 289 281 271 242 228 229 222 219 220 224 242 272 297 320 334 340 344 349 352 351 351 353 356 358 3 9 6 13 9 14 33 46 58 72 79 99 94 113 123
288 281 275 268 266 274 279 262 246 238 252 224 217 214 221 239 257 282 313 335 339 347 351 346 350 350 356 356 0 4 10 13 18 15 23 48 57 62 83 88 100 111 111 117
307 282 273 267 264 261 260 276 257 250 252 225 209 209 218 230 245 266 307 331 338 333 335 346 344 352 358 0 8 5 12 19 28 42 58 62 63 67 89 104 106 115 120 120
336 314 288 271 263 261 256 253 270 252 240 209 204 205 213 217 229 262 308 329 333 309 326 332 354 1 7 6 11 10 15 27 47 84 62 58 60 75 91 111 119 122 124 127
336 339 312 275 258 254 245 240 256 240 220 199 193 198 202 207 222 267 310 324 306 297 324 343 1 8 13 10 17 16 14 31 49 87 70 60 57 65 93 109 119 123 123 126
326 334 328 290 261 250 238 238 238 215 193 191 192 192 191 193 218 276 310 316 307 322 321 2 10 14 15 7 14 20 13 26 46 76 98 69 64 68 75 98 109 120 123 123
323 333 335 317 281 264 230 232 210 186 180 177 178 183 182 189 220 283 284 237 299 323 348 23 15 11 6 0 13 16 14 19 54 74 113 89 77 74 73 98 104 105 107 107
318 328 329 329 300 268 235 206 186 175 174 175 176 174 177 193 238 260 207 182 174 156 14 344 348 358 351 341 356 355 354 1 100 80 113 122 98 92 86 87 101 110 118 117
302 312 294 296 279 254 213 186 168 167 163 159 158 164 179 202 247 201 154 145 165 231 271 338 354 349 342 338 326 326 307 318 172 144 124 144 133 104 102 102 99 104 111 117
313 302 266 228 208 178 180 173 157 156 159 157 158 166 183 229 212 175 155 157 167 113 30 352 356 347 343 340 338 317 264 249 216 180 159 152 161 142 113 125 121 116 117 114
316 293 241 195 177 179 161 166 162 163 163 160 162 171 193 198 156 151 155 169 155 150 60 20 351 336 335 339 343 336 213 221 221 194 181 166 168 174 150 127 131 138 134 134
311 271 205 187 176 165 171 165 164 165 163 162 162 170 190 159 155 160 162 165 164 132 84 20 359 2 343 346 340 324 222 209 228 204 192 179 174 175 174 165 152 143 144 144